This demonstration page uses our WeatherBlox Daily Observations layout. Learn more.

Left ArrowRight Arrow

Hourly Observations for November 1, 2016

Temp ( °F °C ) Dew Point ( °F °C ) Humidity (%) Winds ( mph kmh ) Pressure ( in mb ) Visibility ( mi km ) Precip ( " mm )
12:51 am 00:51 Clear 65 18.3 43 6.1 45 45 SE 3 6 29.8 1009 10 16.0934 N/A
1:51 am 01:51 Clear 63 17.2 44 6.7 50 50 S 5 7 29.81 1009 10 16.0934 N/A
2:51 am 02:51 Clear 61 16.1 44 6.7 54 54 E 3 6 29.81 1010 10 16.0934 N/A
3:51 am 03:51 Clear 60 15.6 44 6.7 56 56 ESE 5 7 29.82 1010 10 16.0934 N/A
4:51 am 04:51 Clear 59 15 44 6.7 58 58 SE 3 6 29.82 1010 10 16.0934 N/A
5:51 am 05:51 Clear 57 13.9 44 6.7 62 62 N N/A 29.85 1011 10 16.0934 N/A
6:51 am 06:51 Sunny 58 14.4 47 8.3 67 67 W 3 6 29.86 1011 10 16.0934 N/A
7:51 am 07:51 Sunny 62 16.7 50 10 65 65 N N/A 29.89 1012 10 16.0934 N/A
8:51 am 08:51 Sunny 64 17.8 51 10.6 63 63 N N/A 29.89 1012 10 16.0934 N/A
9:51 am 09:51 Sunny 68 20 51 10.6 55 55 VRB 3 6 29.87 1012 10 16.0934 N/A
10:51 am 10:51 Sunny 70 21.1 50 10 49 49 N N/A 29.86 1011 10 16.0934 N/A
11:51 am 11:51 Sunny 75 23.9 49 9.4 40 40 E 3 6 29.83 1010 10 16.0934 N/A
12:51 pm 12:51 Sunny 77 25 48 8.9 36 36 ENE 3 6 29.8 1009 10 16.0934 N/A
1:51 pm 13:51 Sunny 78 25.6 45 7.2 31 31 N N/A 29.78 1008 10 16.0934 N/A
2:51 pm 14:51 Sunny 80 26.7 42 5.6 26 26 S 6 9 29.76 1008 10 16.0934 N/A
3:51 pm 15:51 Sunny 80 26.7 41 5 25 25 undefined N/A 29.76 1008 10 16.0934 N/A
4:51 pm 16:51 Sunny 78 25.6 34 1.1 20 20 W 8 13 29.76 1008 10 16.0934 N/A
5:51 pm 17:51 Clear 70 21.1 36 2.2 29 29 NW 6 9 29.79 1009 10 16.0934 N/A
6:51 pm 18:51 Clear 70 21.1 38 3.3 31 31 NW 13 20 29.81 1010 10 16.0934 N/A
7:51 pm 19:51 Clear 68 20 40 4.4 36 36 NW 9 15 29.82 1010 10 16.0934 N/A
8:51 pm 20:51 Clear 65 18.3 41 5 42 42 NW 8 13 29.83 1010 10 16.0934 N/A
9:51 pm 21:51 Clear 62 16.7 41 5 46 46 WSW 6 9 29.85 1011 10 16.0934 N/A
10:51 pm 22:51 Clear 57 13.9 41 5 55 55 N N/A 29.86 1011 10 16.0934 N/A
11:51 pm 23:51 Clear 56 13.3 40 4.4 55 55 N N/A 29.88 1012 10 16.0934 N/A

Powered by AerisWeather